FW9917 Weather Reports


Display with metric or nautical units.
time (UTC)temp
F
wind
direction
speed
MPH
gust
MPH
rain 1hr
in
rain 24hr
in
rain mn
in
humidity
%
barometer
mb
20260509012558 65 15 1.0 3.0 0.00 0.00 0.00 36 1022.3
20260509012057 66 0 0.0 3.0 0.00 0.00 0.00 38 1022.3
20260509011601 66 15 1.0 5.0 0.00 0.00 0.00 35 1022.4
20260509011100 66 15 1.0 5.0 0.00 0.00 0.00 36 1022.4
20260509010559 66 15 1.0 5.0 0.00 0.00 0.00 34 1022.3
20260509010101 66 13 1.0 5.0 0.00 0.00 0.00 33 1022.3
20260509005557 66 15 1.0 5.0 0.00 0.00 0.00 33 1022.3
20260509005056 67 14 0.0 4.0 0.00 0.00 0.00 31 1022.4
20260509004603 67 15 1.0 4.0 0.00 0.00 0.00 31 1022.4
20260509004057 68 14 1.0 4.0 0.00 0.00 0.00 28 1022.4
20260509003558 68 15 2.0 5.0 0.00 0.00 0.00 28 1022.4
20260509003103 68 360 1.0 5.0 0.00 0.00 0.00 28 1022.5
20260509002600 69 14 1.0 5.0 0.00 0.00 0.00 28 1022.5
20260509002057 69 14 1.0 5.0 0.00 0.00 0.00 27 1022.5
20260509001600 70 360 1.0 5.0 0.00 0.00 0.00 26 1022.5
20260509001058 71 13 0.0 5.0 0.00 0.00 0.00 27 1022.6
20260509000557 71 14 1.0 5.0 0.00 0.00 0.00 25 1022.6
20260509000055 71 15 1.0 5.0 0.00 0.00 0.00 25 1022.5
20260508235557 71 15 1.0 5.0 0.00 0.00 0.00 24 1022.5
20260508235057 71 13 0.0 6.0 0.00 0.00 0.00 25 1022.4
20260508234605 70 14 1.0 7.0 0.00 0.00 0.00 28 1022.5
20260508234057 70 15 2.0 7.0 0.00 0.00 0.00 23 1022.5
20260508233557 70 15 1.0 5.0 0.00 0.00 0.00 22 1022.5
20260508233119 71 15 1.0 5.0 0.00 0.00 0.00 22 1022.5
20260508232557 71 14 1.0 5.0 0.00 0.00 0.00 22 1022.6
20260508232057 71 15 1.0 4.0 0.00 0.00 0.00 23 1022.6
20260508231611 71 13 1.0 3.0 0.00 0.00 0.00 21 1022.6
20260508231058 71 14 1.0 4.0 0.00 0.00 0.00 21 1022.6
20260508230559 71 15 1.0 4.0 0.00 0.00 0.00 20 1022.8
20260508230104 71 14 1.0 4.0 0.00 0.00 0.00 20 1022.8
20260508225557 71 15 1.0 5.0 0.00 0.00 0.00 21 1022.8
20260508225057 71 14 0.0 5.0 0.00 0.00 0.00 20 1022.9
20260508224603 71 13 1.0 5.0 0.00 0.00 0.00 21 1023.0
20260508224057 71 15 2.0 5.0 0.00 0.00 0.00 21 1023.0
20260508223557 71 14 1.0 5.0 0.00 0.00 0.00 23 1023.0
20260508223057 71 13 1.0 7.0 0.00 0.00 0.00 21 1023.1
20260508222559 71 15 1.0 7.0 0.00 0.00 0.00 21 1023.2
20260508222058 71 15 1.0 5.0 0.00 0.00 0.00 21 1023.1
20260508221559 71 15 1.0 4.0 0.00 0.00 0.00 23 1023.2
20260508221057 71 14 1.0 7.0 0.00 0.00 0.00 21 1023.2
20260508220602 70 15 1.0 7.0 0.00 0.00 0.00 25 1023.2
20260508220057 70 0 1.0 7.0 0.00 0.00 0.00 23 1023.2
20260508215556 71 15 2.0 7.0 0.00 0.00 0.00 21 1023.4
20260508215058 71 15 1.0 4.0 0.00 0.00 0.00 24 1023.3
20260508214558 70 13 2.0 7.0 0.00 0.00 0.00 22 1023.5
20260508214055 70 14 2.0 7.0 0.00 0.00 0.00 24 1023.5
20260508213555 70 13 1.0 4.0 0.00 0.00 0.00 21 1023.5
20260508213057 71 15 1.0 4.0 0.00 0.00 0.00 21 1023.5
20260508212555 70 15 1.0 5.0 0.00 0.00 0.00 22 1023.5
20260508212057 69 14 1.0 5.0 0.00 0.00 0.00 24 1023.6
20260508211602 70 14 1.0 4.0 0.00 0.00 0.00 20 1023.5
20260508211056 70 15 1.0 5.0 0.00 0.00 0.00 20 1023.5
20260508210556 70 13 2.0 5.0 0.00 0.00 0.00 21 1023.5
20260508210056 70 14 1.0 5.0 0.00 0.00 0.00 19 1023.4
20260508205555 70 15 1.0 4.0 0.00 0.00 0.00 22 1023.5
20260508205056 70 15 1.0 4.0 0.00 0.00 0.00 20 1023.5
20260508204556 70 14 1.0 5.0 0.00 0.00 0.00 20 1023.5
20260508204100 70 14 1.0 5.0 0.00 0.00 0.00 23 1023.5
20260508203555 69 15 1.0 4.0 0.00 0.00 0.00 23 1023.6
20260508203055 69 15 1.0 5.0 0.00 0.00 0.00 21 1023.7
20260508202559 68 13 1.0 5.0 0.00 0.00 0.00 20 1023.8
20260508202055 67 15 0.0 5.0 0.00 0.00 0.00 23 1023.8
20260508201557 67 14 1.0 4.0 0.00 0.00 0.00 24 1023.8
20260508201055 68 15 1.0 4.0 0.00 0.00 0.00 25 1023.9
20260508200556 68 15 1.0 4.0 0.00 0.00 0.00 24 1023.8
20260508200058 67 13 1.0 5.0 0.00 0.00 0.00 25 1023.9
20260508195555 67 360 1.0 5.0 0.00 0.00 0.00 26 1023.8
20260508195056 67 14 2.0 5.0 0.00 0.00 0.00 26 1023.9
20260508194606 67 14 1.0 5.0 0.00 0.00 0.00 22 1023.9
20260508194055 68 16 1.0 4.0 0.00 0.00 0.00 25 1024.0
20260508193555 67 0 0.0 3.0 0.00 0.00 0.00 24 1023.9
20260508193119 68 15 1.0 4.0 0.00 0.00 0.00 24 1024.0
20260508192555 67 15 1.0 5.0 0.00 0.00 0.00 26 1024.0
20260508192100 67 0 1.0 5.0 0.00 0.00 0.00 27 1024.0
20260508191606 67 15 1.0 3.0 0.00 0.00 0.00 26 1024.0
20260508191055 67 14 0.0 3.0 0.00 0.00 0.00 26 1024.0
20260508190555 67 15 0.0 4.0 0.00 0.00 0.00 24 1024.2
20260508190110 67 15 1.0 4.0 0.00 0.00 0.00 23 1024.3
20260508185556 67 15 0.0 4.0 0.00 0.00 0.00 25 1024.2
20260508185055 65 16 1.0 4.0 0.00 0.00 0.00 24 1024.2
20260508184559 65 15 1.0 4.0 0.00 0.00 0.00 22 1024.2
20260508184054 64 0 1.0 4.0 0.00 0.00 0.00 25 1024.4
20260508183555 64 16 1.0 4.0 0.00 0.00 0.00 22 1024.3
20260508183100 63 15 0.0 4.0 0.00 0.00 0.00 30 1024.4
20260508182556 63 13 1.0 4.0 0.00 0.00 0.00 32 1024.4
20260508182055 62 360 1.0 4.0 0.00 0.00 0.00 41 1024.3
20260508181604 61 15 1.0 4.0 0.00 0.00 0.00 44 1024.4
20260508181056 60 0 0.0 3.0 0.00 0.00 0.00 48 1024.4
20260508180600 59 15 1.0 3.0 0.00 0.00 0.00 47 1024.4
20260508180057 57 15 0.0 3.0 0.00 0.00 0.00 47 1024.4
20260508175555 56 0 1.0 3.0 0.00 0.00 0.00 47 1024.5
20260508175056 55 13 0.0 3.0 0.00 0.00 0.00 51 1024.5
20260508174557 55 0 1.0 3.0 0.00 0.00 0.00 64 1024.5
20260508174055 54 14 1.0 3.0 0.00 0.00 0.00 68 1024.6
20260508173556 54 0 1.0 3.0 0.00 0.00 0.00 71 1024.5
20260508173101 54 360 0.0 3.0 0.00 0.00 0.00 74 1024.5
20260508172558 53 0 0.0 3.0 0.00 0.00 0.00 73 1024.5
20260508172057 53 15 0.0 4.0 0.00 0.00 0.00 74 1024.4
20260508171555 52 15 1.0 4.0 0.00 0.00 0.00 75 1024.5
20260508171056 52 15 1.0 3.0 0.00 0.00 0.00 77 1024.4
20260508170555 52 15 0.0 3.0 0.00 0.00 0.00 76 1024.5
20260508170101 52 15 0.0 4.0 0.00 0.00 0.00 77 1024.5
20260508165555 51 0 0.0 4.0 0.00 0.00 0.00 77 1024.4
20260508165055 51 0 0.0 3.0 0.00 0.00 0.00 78 1024.4
20260508164555 51 13 0.0 3.0 0.00 0.00 0.00 78 1024.4
20260508164055 50 14 0.0 3.0 0.00 0.00 0.00 78 1024.4
20260508163555 50 14 0.0 3.0 0.00 0.00 0.00 80 1024.4
20260508163105 50 14 0.0 3.0 0.00 0.00 0.00 79 1024.5
20260508162555 50 15 0.0 3.0 0.00 0.00 0.00 79 1024.4
20260508162055 49 15 0.0 3.0 0.00 0.00 0.00 79 1024.5
20260508161601 49 15 0.0 2.0 0.00 0.00 0.00 79 1024.4
20260508161055 49 0 0.0 3.0 0.00 0.00 0.00 79 1024.4
20260508160555 48 0 0.0 3.0 0.00 0.00 0.00 79 1024.5
20260508160054 48 14 0.0 3.0 0.00 0.00 0.00 80 1024.4
20260508155556 48 15 0.0 3.0 0.00 0.00 0.00 79 1024.3
20260508155056 47 15 0.0 2.0 0.00 0.00 0.00 82 1024.3
20260508154558 46 0 0.0 1.0 0.00 0.00 0.00 83 1024.3
20260508154055 45 0 0.0 1.0 0.00 0.00 0.00 83 1024.3
20260508153556 45 0 0.0 1.0 0.00 0.00 0.00 86 1024.4
20260508153106 44 0 0.0 1.0 0.00 0.00 0.00 87 1024.4
20260508152559 43 0 0.0 0.0 0.00 0.00 0.00 87 1024.4
20260508152056 42 0 0.0 0.0 0.00 0.00 0.00 87 1024.3
20260508151557 41 0 0.0 0.0 0.00 0.00 0.00 86 1024.4
20260508151056 41 0 0.0 0.0 0.00 0.00 0.00 86 1024.3
20260508150556 40 0 0.0 0.0 0.00 0.00 0.00 86 1024.2
20260508150059 40 0 0.0 0.0 0.00 0.00 0.00 86 1024.1
20260508145559 40 0 0.0 0.0 0.00 0.00 0.00 87 1024.2
20260508145054 39 0 0.0 0.0 0.00 0.00 0.00 87 1024.2
20260508144556 39 0 0.0 0.0 0.00 0.00 0.00 87 1024.3
20260508144056 39 0 0.0 0.0 0.00 0.00 0.00 88 1024.1
20260508143556 38 0 0.0 1.0 0.00 0.00 0.00 88 1024.1
20260508143115 38 0 0.0 1.0 0.00 0.00 0.00 85 1024.1
20260508142556 37 0 0.0 1.0 0.00 0.00 0.00 83 1024.1
20260508142056 37 0 0.0 1.0 0.00 0.00 0.00 83 1024.1
20260508141602 37 0 0.0 1.0 0.00 0.00 0.00 84 1024.1
20260508141056 37 0 0.0 2.0 0.00 0.00 0.00 83 1024.0
20260508140555 37 0 0.0 2.0 0.00 0.00 0.00 83 1023.9
20260508140110 37 0 0.0 2.0 0.00 0.00 0.00 83 1023.8
20260508135555 37 0 0.0 2.0 0.00 0.00 0.00 81 1023.8
20260508135057 37 0 0.0 3.0 0.00 0.00 0.00 81 1023.8
20260508134555 37 0 0.0 3.0 0.00 0.00 0.00 81 1023.8
20260508134056 37 65 0.0 2.0 0.00 0.00 0.00 81 1023.7
20260508133556 37 0 0.0 0.0 0.00 0.00 0.00 82 1023.8
20260508133102 37 0 0.0 2.0 0.00 0.00 0.00 82 1023.9
20260508132555 37 0 0.0 2.0 0.00 0.00 0.00 82 1023.8
20260508132056 37 0 0.0 2.0 0.00 0.00 0.00 82 1023.7
20260508131556 37 0 0.0 2.0 0.00 0.00 0.00 82 1023.6
20260508131057 37 84 0.0 2.0 0.00 0.00 0.00 81 1023.6
20260508130555 37 83 0.0 2.0 0.00 0.00 0.00 82 1023.5
20260508130054 37 0 0.0 2.0 0.00 0.00 0.00 83 1023.5
20260508125558 37 83 0.0 2.0 0.00 0.00 0.00 82 1023.5
20260508125056 37 0 0.0 2.0 0.00 0.00 0.00 84 1023.5
20260508124555 37 84 0.0 2.0 0.00 0.00 0.00 83 1023.5
20260508124055 37 83 0.0 3.0 0.00 0.00 0.00 83 1023.5
20260508123555 37 0 0.0 3.0 0.00 0.00 0.00 84 1023.4
20260508123055 37 0 0.0 2.0 0.00 0.00 0.00 84 1023.5
20260508122600 38 76 0.0 2.0 0.00 0.00 0.00 85 1023.5
20260508122058 38 0 0.0 2.0 0.00 0.00 0.00 85 1023.5
20260508121556 38 0 0.0 3.0 0.00 0.00 0.00 85 1023.5
20260508121056 38 82 0.0 3.0 0.00 0.00 0.00 84 1023.4
20260508120555 38 0 0.0 3.0 0.00 0.00 0.00 83 1023.4
20260508120103 38 0 0.0 3.0 0.00 0.00 0.00 83 1023.5
20260508115600 38 0 0.0 2.0 0.00 0.00 0.00 84 1023.5
20260508115055 38 0 0.0 2.0 0.00 0.00 0.00 84 1023.5
20260508114603 38 0 0.0 2.0 0.00 0.00 0.00 85 1023.5
20260508114055 38 84 0.0 2.0 0.00 0.00 0.00 83 1023.5
20260508113555 38 0 0.0 2.0 0.00 0.00 0.00 84 1023.6
20260508113101 38 84 0.0 3.0 0.00 0.00 0.00 84 1023.5
20260508112555 38 0 0.0 3.0 0.00 0.00 0.00 84 1023.5
20260508112055 38 84 0.0 3.0 0.00 0.00 0.00 85 1023.4
20260508111556 38 0 0.0 2.0 0.00 0.00 0.00 84 1023.5
20260508111056 38 0 0.0 2.0 0.00 0.00 0.00 84 1023.5
20260508110555 38 0 0.0 2.0 0.00 0.00 0.00 83 1023.4
20260508110103 38 0 0.0 2.0 0.00 0.00 0.00 84 1023.5
20260508105556 38 0 0.0 2.0 0.00 0.00 0.00 85 1023.5
20260508105056 38 0 0.0 2.0 0.00 0.00 0.00 84 1023.7
20260508104554 38 86 0.0 2.0 0.00 0.00 0.00 84 1023.7
20260508104059 38 0 0.0 2.0 0.00 0.00 0.00 84 1023.7
20260508103555 38 0 0.0 2.0 0.00 0.00 0.00 84 1023.7
20260508103059 38 0 0.0 2.0 0.00 0.00 0.00 84 1023.7
20260508102555 38 82 0.0 2.0 0.00 0.00 0.00 84 1023.7
20260508102055 38 84 0.0 2.0 0.00 0.00 0.00 84 1023.6
20260508101557 38 84 0.0 2.0 0.00 0.00 0.00 83 1023.7
20260508101058 38 0 0.0 2.0 0.00 0.00 0.00 82 1023.6
20260508100600 39 0 0.0 2.0 0.00 0.00 0.00 83 1023.7
20260508100126 39 0 0.0 2.0 0.00 0.00 0.00 82 1023.7
20260508095556 39 0 0.0 2.0 0.00 0.00 0.00 82 1023.7
20260508095056 39 0 0.0 2.0 0.00 0.00 0.00 81 1023.8
20260508094556 39 90 0.0 2.0 0.00 0.00 0.00 81 1023.8
20260508094056 39 0 0.0 2.0 0.00 0.00 0.00 81 1023.7
20260508093556 39 0 0.0 2.0 0.00 0.00 0.00 81 1023.6
20260508093055 39 0 0.0 2.0 0.00 0.00 0.00 81 1023.7
20260508092556 39 0 0.0 0.0 0.00 0.00 0.00 82 1023.8
20260508092055 40 0 0.0 1.0 0.00 0.00 0.00 81 1023.8
20260508091610 40 0 0.0 2.0 0.00 0.00 0.00 82 1023.9
20260508091059 40 0 0.0 3.0 0.00 0.00 0.00 82 1023.8
20260508090559 40 0 0.0 3.0 0.00 0.00 0.00 81 1023.8
20260508090055 40 81 0.0 2.0 0.00 0.00 0.00 81 1023.8
20260508085555 41 0 0.0 2.0 0.00 0.00 0.00 81 1023.6
20260508085056 41 0 0.0 2.0 0.00 0.00 0.00 81 1023.7
20260508084557 41 0 0.0 3.0 0.00 0.00 0.00 81 1023.8
20260508084055 41 83 0.0 3.0 0.00 0.00 0.00 81 1023.8
20260508083555 41 0 0.0 3.0 0.00 0.00 0.00 81 1023.8
20260508083055 41 0 0.0 3.0 0.00 0.00 0.00 81 1023.8
20260508082556 41 0 1.0 3.0 0.00 0.00 0.00 81 1023.9
20260508082056 41 84 0.0 3.0 0.00 0.00 0.00 80 1024.0
20260508081611 41 80 0.0 3.0 0.00 0.00 0.00 81 1024.1
20260508081055 41 0 0.0 3.0 0.00 0.00 0.00 80 1024.0
20260508080556 42 82 0.0 2.0 0.00 0.00 0.00 81 1024.2
20260508080059 42 86 0.0 2.0 0.00 0.00 0.00 80 1024.2
20260508075556 42 86 1.0 2.0 0.00 0.00 0.00 80 1024.3
20260508075057 42 85 0.0 3.0 0.00 0.00 0.00 81 1024.3
20260508074602 42 84 0.0 3.0 0.00 0.00 0.00 81 1024.4
20260508074056 42 0 0.0 3.0 0.00 0.00 0.00 81 1024.5
20260508073556 42 87 0.0 2.0 0.00 0.00 0.00 81 1024.4
20260508073057 42 0 0.0 2.0 0.00 0.00 0.00 81 1024.5
20260508072556 43 87 0.0 2.0 0.00 0.00 0.00 80 1024.5
20260508072058 43 86 0.0 1.0 0.00 0.00 0.00 81 1024.4
20260508071554 43 0 0.0 2.0 0.00 0.00 0.00 80 1024.4
20260508071056 43 0 0.0 2.0 0.00 0.00 0.00 80 1024.3
20260508070556 43 0 0.0 2.0 0.00 0.00 0.00 79 1024.3
20260508070100 43 82 0.0 3.0 0.00 0.00 0.00 79 1024.3
20260508065556 44 0 0.0 3.0 0.00 0.00 0.00 79 1024.4
20260508065055 44 84 1.0 3.0 0.00 0.00 0.00 80 1024.4
20260508064557 44 86 0.0 2.0 0.00 0.00 0.00 80 1024.4
20260508064055 44 0 0.0 2.0 0.00 0.00 0.00 80 1024.4
20260508063556 45 85 1.0 3.0 0.00 0.00 0.00 80 1024.4
20260508063058 45 0 0.0 3.0 0.00 0.00 0.00 81 1024.4
20260508062556 45 80 0.0 3.0 0.00 0.00 0.00 81 1024.4
20260508062055 45 0 0.0 3.0 0.00 0.00 0.00 81 1024.5
20260508061604 45 82 0.0 3.0 0.00 0.00 0.00 81 1024.6
20260508061056 45 80 0.0 3.0 0.00 0.00 0.00 81 1024.5
20260508060556 46 0 0.0 3.0 0.00 0.00 0.00 81 1024.6
20260508060111 46 88 0.0 3.0 0.00 0.00 0.00 81 1024.5
20260508055556 46 0 0.0 3.0 0.00 0.00 0.00 80 1024.6
20260508055056 46 0 0.0 3.0 0.00 0.00 0.00 80 1024.6
20260508054639 46 0 1.0 3.0 0.00 0.00 0.00 80 1024.7
20260508054056 47 0 0.0 3.0 0.00 0.00 0.00 80 1024.8
20260508053555 47 83 0.0 3.0 0.00 0.00 0.00 80 1024.8
20260508053056 47 0 0.0 3.0 0.00 0.00 0.00 79 1024.7
20260508052556 47 84 0.0 2.0 0.00 0.00 0.00 79 1024.7
20260508052056 48 86 0.0 2.0 0.00 0.00 0.00 79 1024.7
20260508051557 48 91 0.0 2.0 0.00 0.00 0.00 79 1024.8
20260508051055 48 0 0.0 2.0 0.00 0.00 0.00 79 1024.7
20260508050556 48 0 0.0 2.0 0.00 0.00 0.00 79 1024.8
20260508050057 48 0 0.0 2.0 0.00 0.00 0.00 78 1024.7
20260508045555 49 0 0.0 2.0 0.00 0.00 0.00 78 1024.8
20260508045056 49 0 0.0 2.0 0.00 0.00 0.00 78 1024.8
20260508044557 49 0 0.0 1.0 0.00 0.00 0.00 78 1024.8
20260508044056 49 0 0.0 0.0 0.00 0.00 0.00 77 1024.7
20260508043555 50 0 0.0 0.0 0.00 0.00 0.00 76 1024.6
20260508043059 50 0 0.0 0.0 0.00 0.00 0.00 76 1024.6
20260508042556 50 0 0.0 1.0 0.00 0.00 0.00 76 1024.5
20260508042055 51 0 0.0 1.0 0.00 0.00 0.00 76 1024.6
20260508041556 51 0 0.0 1.0 0.00 0.00 0.00 76 1024.4
20260508041056 51 0 0.0 1.0 0.00 0.00 0.00 76 1024.4
20260508040556 52 0 0.0 1.0 0.00 0.00 0.00 75 1024.2
20260508040100 52 0 0.0 1.0 0.00 0.00 0.00 75 1024.1
20260508035555 53 0 0.0 0.0 0.00 0.00 0.00 74 1024.0
20260508035056 53 0 0.0 0.0 0.00 0.00 0.00 74 1024.0
20260508034554 53 0 0.0 0.0 0.00 0.00 0.00 73 1023.9
20260508034055 54 0 0.0 0.0 0.00 0.00 0.00 72 1023.8
20260508033555 54 0 0.0 1.0 0.00 0.00 0.00 72 1023.8
20260508033055 54 0 0.0 2.0 0.00 0.00 0.00 71 1023.8
20260508032556 54 0 0.0 3.0 0.00 0.00 0.00 69 1023.6
20260508032055 54 0 0.0 3.0 0.00 0.00 0.00 68 1023.5
20260508031600 55 223 0.0 3.0 0.00 0.00 0.00 67 1023.4
20260508031056 55 0 0.0 3.0 0.00 0.00 0.00 67 1023.3
20260508030556 55 0 0.0 3.0 0.00 0.00 0.00 66 1023.4
20260508030109 55 0 0.0 3.0 0.00 0.00 0.00 66 1023.2
20260508025553 56 0 0.0 1.0 0.00 0.00 0.00 65 1023.1
20260508025055 56 0 0.0 1.0 0.00 0.00 0.00 65 1023.2
20260508024607 57 0 0.0 3.0 0.00 0.00 0.00 65 1023.2
20260508024055 57 284 0.0 4.0 0.00 0.00 0.00 64 1023.0
20260508023555 57 0 1.0 4.0 0.00 0.00 0.00 63 1023.0
20260508023055 57 0 1.0 7.0 0.00 0.00 0.00 61 1022.9
20260508022557 58 15 0.0 7.0 0.00 0.00 0.00 58 1023.0
20260508022056 58 16 1.0 7.0 0.00 0.00 0.00 58 1022.9
20260508021557 58 313 1.0 7.0 0.00 0.00 0.00 58 1022.9
20260508021055 59 15 0.0 5.0 0.00 0.00 0.00 58 1022.8
20260508020556 59 15 2.0 7.0 0.00 0.00 0.00 55 1022.8
20260508020104 59 16 2.0 7.0 0.00 0.00 0.00 55 1022.9
20260508015555 60 15 1.0 6.0 0.00 0.00 0.00 55 1022.8
20260508015056 60 15 1.0 7.0 0.00 0.00 0.00 53 1022.8
20260508014611 60 15 3.0 7.0 0.00 0.00 0.00 51 1022.8
20260508014056 61 15 1.0 7.0 0.00 0.00 0.00 50 1022.8
20260508013556 61 15 2.0 8.0 0.00 0.00 0.00 50 1022.8
20260508013100 61 15 2.0 8.0 0.00 0.00 0.00 48 1022.7